043  
ASUS44 KMEG 031110  
RWRMEG  
MEMPHIS CWA HOURLY WEATHER ROUNDUP  
NATIONAL WEATHER SERVICE MEMPHIS TN  
500 AM CST SUN MAR 03 2024  
   
..WEST TENNESSEE
 
 
 
CITY SKY/WX TMP DP RH WIND PRES REMARKS
 
MEMPHIS INTL MOCLDY 51 49 92 S8 30.02S  
NWS MEMPHIS N/A 51 N/A N/A MISG N/A  
FRAYSER PTCLDY 52 51 97 SE7 30.01S  
JACKSON PTCLDY 51 48 89 S6 30.05R  
COVINGTON FOG 43 43 100 CALM 30.03R VSB 1/4  
SOMERVILLE CLEAR 52 50 93 S7 30.03R  
LEXINGTON FOG 37 37 100 CALM 30.06S VSB 1/4  
SELMER CLEAR 48 46 93 S5 30.05R  
SAVANNAH PTCLDY 39 39 100 SW3 30.04S  
DYERSBURG PTCLDY 49 32 52 SE3 30.04R  
UNION CITY FOG 41 41 100 CALM 30.03R VSB 0  
PARIS CLEAR 46 46 100 S8 30.04S  
HUNTINGDON CLEAR 43 43 100 CALM 30.04R FOG  
 
   
..EASTERN ARKANSAS
 
 
 
CITY SKY/WX TMP DP RH WIND PRES REMARKS
 
JONESBORO PTCLDY 49 46 90 CALM 30.01S  
WEST MEMPHIS PTCLDY 49 47 93 S8 30.01S  
BATESVILLE CLEAR 50 32 50 SE5 29.98S  
NEWPORT CLEAR 49 48 97 S10 30.00R  
WALNUT RIDGE PTCLDY 48 48 100 S10 29.99F  
BLYTHEVILLE PTCLDY 50 46 86 S9 30.01S  
SEARCY PTCLDY 50 49 96 CALM 29.98R  
STUTTGART PTCLDY 52 52 100 SE8 30.00R  
PINE BLUFF MOCLDY 52 49 89 E6 29.99R  
MONTICELLO CLOUDY 53 52 96 S7 30.00R  
 
   
..NORTH MISSISSIPPI
 
 
 
CITY SKY/WX TMP DP RH WIND PRES REMARKS
 
TUPELO FOG 43 41 93 CALM 30.07R VSB 3/4  
OXFORD MOCLDY 50 50 100 S5 30.06S  
BATESVILLE MOCLDY 46 46 100 CALM 30.04S FOG  
OLIVE BRANCH PTCLDY 50 50 100 S6 30.03R  
TUNICA PTCLDY 47 47 100 SE6 30.03R  
CLARKSDALE N/A 52 N/A N/A SE6 30.03S  
IUKA FOG 40 40 100 CALM 30.07S VSB<1/4  
GREENWOOD CLOUDY 58 55 90 S7 30.04S  
COLUMBUS PTCLDY 52 52 100 CALM 30.04S FOG  
STARKVILLE LGT RAIN 52 52 100 S6 30.05R VSB 3/4  
GOLDEN TRIANGL CLOUDY 52 52 100 SE3 30.07S FOG  
 
   
..SOUTHEAST MISSOURI
 
 
 
CITY SKY/WX TMP DP RH WIND PRES REMARKS
 
KENNETT FOG 45 45 100 SE6 30.00F VSB 1/4  
MALDEN CLEAR 50 46 87 S9 30.02S  
WEST PLAINS CLEAR 53 48 83 S10 29.93S  
POPLAR BLUFF PTCLDY 39 38 96 E3 29.99F FOG  
CAPE GIRARDEAU PTCLDY 41 41 100 CALM 30.01S FOG  
 
   
..NORTHWEST ALABAMA
 
 
 
CITY SKY/WX TMP DP RH WIND PRES REMARKS
 
MUSCLE SHOALS CLOUDY 48 46 93 E3 30.08R FOG  
 
   
..MIDDLE TENNESSEE
 
 
 
CITY SKY/WX TMP DP RH WIND PRES REMARKS
 
NASHVILLE CLEAR 42 39 89 CALM 30.10R  
CLARKSVILLE FOG 38 37 97 SE5 30.07R VSB 1/4 WCI 34  
DICKSON PTCLDY 48 46 93 S9 30.06R  
COLUMBIA CLEAR 36 36 100 CALM 30.07R  
LAWRENCEBURG MOCLDY 43 43 100 SE3 30.07F FOG  
LEWISBURG CLOUDY 34 34 100 CALM 30.09R FOG  
 
   
..WESTERN KENTUCKY
 
 
 
CITY SKY/WX TMP DP RH WIND PRES REMARKS
 
PADUCAH FOG 41 40 96 CALM 30.03R VSB 1/4  
FORT CAMPBELL CLEAR 43 42 95 SE6 30.05R  
 
   
..CENTRAL ARKANSAS
 
 
 
CITY SKY/WX TMP DP RH WIND PRES REMARKS
 
LITTLE ROCK MOCLDY 51 47 86 CALM 29.97S  
 
SKY/WX REPORTED AS FAIR MEANS FEW OR NO CLOUDS BELOW  
12 THOUSAND FEET.  
 
 
 
CLICK HERE TO GO TO PREVIOUS BULLETINS.

The Nexlab TN Page
The Nexlab MS Page
The Nexlab AR Page Main Text Page